La Grange, TX

11:31 AM CST on November 15, 2019 (GMT -0600)
La Grange

Weather History for K3T5 - August, 2019

Change the Weather History Date:

Saturday, August 24, 2019

  Actual Average (KAUS) Record (KAUS)
Temperature  
Mean Temperature 87 °F -  
Max Temperature 98 °F 92 °F 107 °F (2010)
Min Temperature 76 °F 70 °F 61 °F (1961)
Cooling Degree Days 22    
Growing Degree Days 37 (Base 50)    
Moisture  
Dew Point 77 °F    
Average Humidity 82    
Maximum Humidity 100    
Minimum Humidity 41    
Precipitation  
Precipitation 0.01 in - - ()
Sea Level Pressure  
Sea Level Pressure 29.88 in    
Wind  
Wind Speed 2 mph (South)    
Max Wind Speed 10 mph    
Max Gust Speed 17 mph    
Visibility 8 miles    
Events Rain , Thunderstorm    
Averages and records for this station are not official NWS values.
T = Trace of Precipitation, MM = Missing Value Source: NWS Daily Summary

Daily Weather History Graph

Daily Weather History Graph

Search for Another Location

Airport or City:

Astronomy

Aug. 24, 2019 Rise Set
Actual Time 7:00 AM CDT 7:59 PM CDT
Civil Twilight 6:35 AM CDT 8:24 PM CDT
Nautical Twilight 6:06 AM CDT 8:53 PM CDT
Astronomical Twilight 5:36 AM CDT 9:23 PM CDT
Moon 1:03 AM CDT (8/24) 3:04 PM CDT (8/24)
Length of Visible Light 13h 48m
Length of Day
12h 59m
Last Quarter, 39% of the Moon is Illuminated
Aug 24
Last Quarter
Aug 30
New
Sep 5
First Quarter
Sep 13
Full
Sep 21
Last Quarter

Hourly Weather History & Observations

Time (CDT) Temp. Heat Index Dew Point Humidity Pressure Visibility Wind Dir Wind Speed Gust Speed Precip Events Conditions
12:15 AM 78.6 °F - 78.4 °F 99% 29.90 in 10.0 mi Calm Calm - N/A   Scattered Clouds
12:35 AM 78.3 °F - 78.3 °F 100% 29.90 in 10.0 mi Calm Calm - N/A   Clear
12:55 AM 77.9 °F - 77.9 °F 100% 29.90 in 10.0 mi SSE 3.5 mph - N/A   Clear
1:15 AM 77.5 °F - 77.5 °F 100% 29.91 in 10.0 mi Calm Calm - N/A   Clear
1:35 AM 77.7 °F - 77.7 °F 100% 29.91 in 10.0 mi Calm Calm - N/A   Scattered Clouds
1:55 AM 77.9 °F - 77.9 °F 100% 29.91 in 10.0 mi Calm Calm - N/A   Overcast
2:15 AM 77.5 °F - 77.5 °F 100% 29.91 in 10.0 mi Calm Calm - N/A   Scattered Clouds
2:35 AM 77.5 °F - 77.5 °F 100% 29.91 in 10.0 mi Calm Calm - N/A   Mostly Cloudy
2:55 AM 77.5 °F - 77.5 °F 100% 29.90 in 10.0 mi Calm Calm - N/A   Scattered Clouds
3:15 AM 77.2 °F - 77.2 °F 100% 29.91 in 10.0 mi Calm Calm - N/A   Clear
3:35 AM 77.0 °F - 77.0 °F 100% 29.91 in 10.0 mi Calm Calm - N/A   Clear
3:55 AM 77.0 °F - 77.0 °F 100% 29.91 in 10.0 mi Calm Calm - N/A   Clear
4:15 AM 76.6 °F - 76.6 °F 100% 29.90 in 10.0 mi Calm Calm - N/A   Scattered Clouds
4:35 AM 76.8 °F - 76.8 °F 100% 29.90 in 10.0 mi Calm Calm - N/A   Scattered Clouds
4:55 AM 77.0 °F - 77.0 °F 100% 29.90 in 10.0 mi Calm Calm - N/A   Clear
5:15 AM 76.8 °F - 76.8 °F 100% 29.91 in 10.0 mi Calm Calm - N/A   Clear
5:35 AM 76.8 °F - 76.8 °F 100% 29.91 in 10.0 mi Calm Calm - N/A   Scattered Clouds
5:55 AM 76.6 °F - 76.6 °F 100% 29.90 in 7.0 mi Calm Calm - N/A   Mostly Cloudy
6:15 AM 76.8 °F - 76.8 °F 100% 29.91 in 10.0 mi Calm Calm - N/A   Mostly Cloudy
6:35 AM 76.8 °F - 76.8 °F 100% 29.90 in 10.0 mi Calm Calm - N/A   Overcast
6:55 AM 76.6 °F - 76.6 °F 100% 29.90 in 7.0 mi Calm Calm - N/A   Overcast
7:15 AM 77.0 °F - 77.0 °F 100% 29.91 in 7.0 mi Calm Calm - N/A   Overcast
7:35 AM 77.2 °F - 77.2 °F 100% 29.91 in 10.0 mi Calm Calm - N/A   Overcast
7:55 AM 77.9 °F - 77.9 °F 100% 29.91 in 10.0 mi Calm Calm - N/A   Overcast
8:15 AM 78.8 °F - 78.8 °F 100% 29.91 in 10.0 mi ESE 4.6 mph - N/A   Mostly Cloudy
8:35 AM 79.9 °F - 79.9 °F 100% 29.92 in 10.0 mi SE 3.5 mph - N/A   Scattered Clouds
8:55 AM 81.3 °F 90.7 °F 79.7 °F 95% 29.92 in 10.0 mi SE 3.5 mph - N/A   Scattered Clouds
9:15 AM 82.8 °F 93.6 °F 79.2 °F 89% 29.92 in 10.0 mi Calm Calm - N/A   Scattered Clouds
9:35 AM 83.7 °F 94.9 °F 78.6 °F 85% 29.91 in 10.0 mi Calm Calm - N/A   Scattered Clouds
9:55 AM 84.7 °F 96.1 °F 78.1 °F 80% 29.92 in 10.0 mi Calm Calm - N/A   Scattered Clouds
10:15 AM 86.9 °F 98.3 °F 77.0 °F 72% 29.91 in 10.0 mi Calm Calm - N/A   Mostly Cloudy
10:35 AM 88.3 °F 100.6 °F 77.0 °F 69% 29.92 in 10.0 mi NW 3.5 mph - N/A   Overcast
10:55 AM 87.6 °F 98.2 °F 76.1 °F 68% 29.92 in 10.0 mi Calm Calm - N/A   Scattered Clouds
11:15 AM 89.6 °F 101.0 °F 75.7 °F 64% 29.91 in 10.0 mi Calm Calm - N/A   Mostly Cloudy
11:35 AM 90.9 °F 103.0 °F 76.1 °F 62% 29.91 in 10.0 mi NE 3.5 mph - N/A   Mostly Cloudy
11:55 AM 90.1 °F 101.2 °F 75.6 °F 62% 29.91 in 10.0 mi Calm Calm - N/A   Scattered Clouds
12:15 PM 90.0 °F 99.6 °F 74.3 °F 60% 29.90 in 10.0 mi Calm Calm - N/A   Scattered Clouds
12:35 PM 93.0 °F 103.2 °F 74.1 °F 54% 29.89 in 10.0 mi Calm Calm - N/A   Mostly Cloudy
12:55 PM 94.1 °F 102.5 °F 72.5 °F 49% 29.89 in 10.0 mi East 4.6 mph - N/A   Scattered Clouds
1:15 PM 95.2 °F 102.9 °F 71.4 °F 46% 29.88 in 10.0 mi Calm Calm - N/A   Clear
1:35 PM 94.6 °F 103.0 °F 72.0 °F 48% 29.88 in 10.0 mi South 5.8 mph - N/A   Clear
1:55 PM 95.5 °F 105.8 °F 73.4 °F 49% 29.88 in 10.0 mi East 6.9 mph - N/A   Clear
2:15 PM 95.0 °F 103.8 °F 72.7 °F 48% 29.86 in 10.0 mi Calm Calm - N/A   Scattered Clouds
2:55 PM 95.7 °F 104.1 °F 71.8 °F 46% 29.85 in 10.0 mi SE 5.8 mph - N/A   Scattered Clouds
3:15 PM 98.4 °F 106.5 °F 70.7 °F 41% 29.84 in 10.0 mi ESE 6.9 mph - N/A   Clear
3:35 PM 96.3 °F 106.8 °F 73.4 °F 48% 29.83 in 10.0 mi SSE 9.2 mph 16.1 mph N/A   Scattered Clouds
3:55 PM 96.3 °F 107.5 °F 74.1 °F 49% 29.82 in 10.0 mi South 9.2 mph - N/A   Scattered Clouds
4:15 PM 97.3 °F 108.6 °F 73.8 °F 47% 29.81 in 10.0 mi SSE 10.4 mph 16.1 mph N/A   Clear
4:35 PM 97.3 °F 108.6 °F 74.3 °F 47% 29.80 in 10.0 mi ESE 9.2 mph - N/A   Scattered Clouds
4:55 PM 96.4 °F 107.2 °F 73.8 °F 48% 29.80 in 10.0 mi SE 4.6 mph - N/A   Scattered Clouds
5:15 PM 95.9 °F 105.9 °F 73.2 °F 48% 29.80 in 10.0 mi SSE 4.6 mph - N/A   Scattered Clouds
5:35 PM 90.9 °F 100.6 °F 74.1 °F 58% 29.81 in 10.0 mi NNE 5.8 mph - N/A   Overcast
5:55 PM 85.6 °F 95.9 °F 76.6 °F 74% 29.83 in 0.5 mi NW 10.4 mph 17.3 mph N/A Rain , Thunderstorm Heavy Thunderstorms and Rain
6:15 PM 82.0 °F 91.3 °F 78.6 °F 89% 29.82 in 1.5 mi NW 10.4 mph - 0.01 in Rain , Thunderstorm Rain
6:35 PM 82.4 °F 91.2 °F 77.4 °F 85% 29.82 in 0.2 mi West 5.8 mph - 0.01 in Rain Light Rain
6:55 PM 82.9 °F 93.4 °F 78.8 °F 87% 29.83 in 0.2 mi SW 5.8 mph - 0.01 in Rain Light Rain
7:15 PM 83.5 °F 94.7 °F 79.0 °F 86% 29.83 in 0.5 mi WSW 4.6 mph - N/A Thunderstorm Drizzle
7:35 PM 83.5 °F 94.7 °F 79.0 °F 86% 29.84 in 1.0 mi WSW 4.6 mph - N/A Thunderstorm Drizzle
7:55 PM 83.3 °F 95.3 °F 79.7 °F 89% 29.85 in 2.5 mi SW 4.6 mph - N/A   Clear
8:15 PM 82.8 °F 93.2 °F 78.8 °F 88% 29.86 in 2.0 mi SW 3.5 mph - N/A Rain Light Rain
8:35 PM 82.4 °F 92.1 °F 78.6 °F 88% 29.86 in 4.0 mi East 5.8 mph - N/A   Light Drizzle
8:55 PM 82.8 °F 92.6 °F 78.3 °F 86% 29.87 in 0.8 mi South 4.6 mph - N/A Rain , Thunderstorm Light Thunderstorms and Rain
9:15 PM 81.9 °F 89.7 °F 77.0 °F 85% 29.88 in 0.8 mi SW 6.9 mph - N/A Rain Light Rain
9:35 PM 81.5 °F 89.2 °F 77.4 °F 87% 29.88 in 10.0 mi WSW 3.5 mph - N/A Thunderstorm Mostly Cloudy
9:55 PM 81.5 °F 89.5 °F 77.7 °F 88% 29.88 in 1.2 mi SSW 4.6 mph - N/A   Mostly Cloudy
10:15 PM 81.0 °F 88.4 °F 77.9 °F 90% 29.89 in 7.0 mi WSW 3.5 mph - N/A   Clear
10:35 PM 80.6 °F 87.5 °F 77.9 °F 91% 29.89 in 7.0 mi Calm Calm - N/A   Clear
10:55 PM 80.6 °F 87.7 °F 78.1 °F 92% 29.89 in 10.0 mi Calm Calm - N/A Rain Light Rain
11:15 PM 80.2 °F 87.0 °F 78.4 °F 94% 29.90 in 10.0 mi Calm Calm - N/A Rain Light Rain
11:35 PM 79.9 °F - 78.4 °F 95% 29.90 in 10.0 mi Calm Calm - N/A   Clear
11:55 PM 79.7 °F - 79.7 °F 100% 29.90 in 10.0 mi Calm Calm - N/A   Scattered Clouds